contact:dominique.lefevre@mio.osupytheas.fr, maurice.libes@osupytheas.fr, didier.mallarino@osupytheas.fr
Project:EMSO http://www.emso-fr.org/EMSO-France
Depth: 2436.0 m
Title:EMSO Ligure Ouest : Data MII capteur MICROCAT
DateTime_Computer,Latitude,Longitude,Temperature,Conductivity,Pressure,DateTime_Instrument
DateTime_Computer,Latitude,Longitude,degC,S m-1,dbar,DateTime_Instrument
2022-11-11T00:00:07Z,42.805,6.029,13.3007,4.60052,2470.693,2022-11-11T02:02:05Z
2022-11-11T00:03:10Z,42.805,6.029,13.3010,4.60055,2470.717,2022-11-11T02:05:08Z
2022-11-11T00:06:13Z,42.805,6.029,13.3009,4.60053,2470.717,2022-11-11T02:08:11Z
2022-11-11T00:09:16Z,42.805,6.029,13.3012,4.60052,2470.707,2022-11-11T02:11:14Z
2022-11-11T00:12:19Z,42.805,6.029,13.3011,4.60053,2470.707,2022-11-11T02:14:17Z
2022-11-11T00:15:22Z,42.805,6.029,13.3012,4.60052,2470.693,2022-11-11T02:17:20Z
2022-11-11T00:18:25Z,42.805,6.029,13.3009,4.60052,2470.693,2022-11-11T02:20:23Z
2022-11-11T00:21:28Z,42.805,6.029,13.3007,4.60057,2470.73,2022-11-11T02:23:26Z
2022-11-11T00:24:31Z,42.805,6.029,13.3008,4.60052,2470.717,2022-11-11T02:26:29Z
2022-11-11T00:27:35Z,42.805,6.029,13.3008,4.60054,2470.693,2022-11-11T02:29:32Z
2022-11-11T00:30:38Z,42.805,6.029,13.3006,4.60053,2470.717,2022-11-11T02:32:35Z
2022-11-11T00:33:41Z,42.805,6.029,13.3009,4.60052,2470.693,2022-11-11T02:35:39Z
2022-11-11T00:36:44Z,42.805,6.029,13.3009,4.60052,2470.693,2022-11-11T02:38:42Z
2022-11-11T00:39:47Z,42.805,6.029,13.3007,4.60053,2470.707,2022-11-11T02:41:45Z
2022-11-11T00:42:50Z,42.805,6.029,13.3008,4.60052,2470.684,2022-11-11T02:44:48Z
2022-11-11T00:45:53Z,42.805,6.029,13.3009,4.60052,2470.67,2022-11-11T02:47:51Z
2022-11-11T00:48:56Z,42.805,6.029,13.3009,4.60052,2470.707,2022-11-11T02:50:54Z
2022-11-11T00:51:59Z,42.805,6.029,13.3009,4.60052,2470.693,2022-11-11T02:53:57Z
2022-11-11T00:55:02Z,42.805,6.029,13.3007,4.60052,2470.707,2022-11-11T02:57:00Z
2022-11-11T00:58:05Z,42.805,6.029,13.3008,4.60052,2470.684,2022-11-11T03:00:03Z
2022-11-11T01:01:08Z,42.805,6.029,13.3011,4.60052,2470.693,2022-11-11T03:03:06Z
2022-11-11T01:04:11Z,42.805,6.029,13.3009,4.60052,2470.684,2022-11-11T03:06:09Z
2022-11-11T01:07:15Z,42.805,6.029,13.3009,4.60051,2470.684,2022-11-11T03:09:12Z
2022-11-11T01:10:18Z,42.805,6.029,13.3009,4.60051,2470.646,2022-11-11T03:12:15Z
2022-11-11T01:13:21Z,42.805,6.029,13.3009,4.60052,2470.693,2022-11-11T03:15:18Z
2022-11-11T01:16:24Z,42.805,6.029,13.3007,4.60051,2470.67,2022-11-11T03:18:22Z
2022-11-11T01:19:27Z,42.805,6.029,13.3009,4.60052,2470.707,2022-11-11T03:21:25Z
2022-11-11T01:22:30Z,42.805,6.029,13.3007,4.60052,2470.684,2022-11-11T03:24:28Z
2022-11-11T01:25:33Z,42.805,6.029,13.3008,4.60052,2470.67,2022-11-11T03:27:31Z
2022-11-11T01:28:36Z,42.805,6.029,13.3009,4.60052,2470.679,2022-11-11T03:30:34Z
2022-11-11T01:31:39Z,42.805,6.029,13.3008,4.60054,2470.707,2022-11-11T03:33:37Z
2022-11-11T01:34:42Z,42.805,6.029,13.3012,4.60052,2470.693,2022-11-11T03:36:40Z
2022-11-11T01:37:45Z,42.805,6.029,13.3007,4.60052,2470.707,2022-11-11T03:39:43Z
2022-11-11T01:40:48Z,42.805,6.029,13.3006,4.60052,2470.646,2022-11-11T03:42:46Z
2022-11-11T01:43:52Z,42.805,6.029,13.3009,4.60052,2470.646,2022-11-11T03:45:49Z
2022-11-11T01:46:55Z,42.805,6.029,13.3009,4.60052,2470.646,2022-11-11T03:48:52Z
2022-11-11T01:49:58Z,42.805,6.029,13.3009,4.60052,2470.661,2022-11-11T03:51:55Z
2022-11-11T01:53:01Z,42.805,6.029,13.3009,4.60052,2470.67,2022-11-11T03:54:59Z
2022-11-11T01:56:04Z,42.805,6.029,13.3004,4.60052,2470.693,2022-11-11T03:58:02Z
2022-11-11T01:59:07Z,42.805,6.029,13.3007,4.60051,2470.646,2022-11-11T04:01:05Z
2022-11-11T02:02:10Z,42.805,6.029,13.3009,4.60051,2470.661,2022-11-11T04:04:08Z
2022-11-11T02:05:13Z,42.805,6.029,13.3009,4.60052,2470.633,2022-11-11T04:07:11Z
2022-11-11T02:08:16Z,42.805,6.029,13.3011,4.60052,2470.646,2022-11-11T04:10:14Z
2022-11-11T02:11:19Z,42.805,6.029,13.3006,4.60052,2470.646,2022-11-11T04:13:17Z
2022-11-11T02:14:22Z,42.805,6.029,13.3011,4.60052,2470.646,2022-11-11T04:16:20Z
2022-11-11T02:17:25Z,42.805,6.029,13.3009,4.60052,2470.684,2022-11-11T04:19:23Z
2022-11-11T02:20:28Z,42.805,6.029,13.3007,4.60052,2470.624,2022-11-11T04:22:26Z
2022-11-11T02:23:32Z,42.805,6.029,13.3009,4.60055,2470.646,2022-11-11T04:25:29Z
2022-11-11T02:26:35Z,42.805,6.029,13.3012,4.60052,2470.646,2022-11-11T04:28:32Z
2022-11-11T02:29:38Z,42.805,6.029,13.3007,4.60052,2470.661,2022-11-11T04:31:35Z
2022-11-11T02:32:41Z,42.805,6.029,13.3010,4.60053,2470.684,2022-11-11T04:34:39Z
2022-11-11T02:35:44Z,42.805,6.029,13.3011,4.60053,2470.67,2022-11-11T04:37:42Z
2022-11-11T02:38:47Z,42.805,6.029,13.3009,4.60052,2470.646,2022-11-11T04:40:45Z
2022-11-11T02:41:50Z,42.805,6.029,13.3010,4.60053,2470.684,2022-11-11T04:43:48Z
2022-11-11T02:44:53Z,42.805,6.029,13.3011,4.60052,2470.661,2022-11-11T04:46:51Z
2022-11-11T02:47:56Z,42.805,6.029,13.3011,4.60053,2470.67,2022-11-11T04:49:54Z
2022-11-11T02:50:59Z,42.805,6.029,13.3011,4.60052,2470.661,2022-11-11T04:52:57Z
2022-11-11T02:54:02Z,42.805,6.029,13.3011,4.60053,2470.661,2022-11-11T04:56:00Z
2022-11-11T02:57:05Z,42.805,6.029,13.3009,4.60054,2470.624,2022-11-11T04:59:03Z
2022-11-11T03:00:08Z,42.805,6.029,13.3013,4.60057,2470.656,2022-11-11T05:02:06Z
2022-11-11T03:03:12Z,42.805,6.029,13.3009,4.60054,2470.646,2022-11-11T05:05:09Z
2022-11-11T03:06:15Z,42.805,6.029,13.3011,4.60053,2470.624,2022-11-11T05:08:12Z
2022-11-11T03:09:18Z,42.805,6.029,13.3009,4.60053,2470.624,2022-11-11T05:11:15Z
2022-11-11T03:12:21Z,42.805,6.029,13.3012,4.60053,2470.646,2022-11-11T05:14:19Z
2022-11-11T03:15:24Z,42.805,6.029,13.3009,4.60053,2470.661,2022-11-11T05:17:22Z
2022-11-11T03:18:27Z,42.805,6.029,13.3008,4.60053,2470.624,2022-11-11T05:20:25Z
2022-11-11T03:21:30Z,42.805,6.029,13.3009,4.60055,2470.661,2022-11-11T05:23:28Z
2022-11-11T03:24:33Z,42.805,6.029,13.3010,4.60052,2470.646,2022-11-11T05:26:31Z
2022-11-11T03:27:36Z,42.805,6.029,13.3012,4.60054,2470.624,2022-11-11T05:29:34Z
2022-11-11T03:30:39Z,42.805,6.029,13.3012,4.60053,2470.656,2022-11-11T05:32:37Z
2022-11-11T03:33:42Z,42.805,6.029,13.3010,4.60053,2470.661,2022-11-11T05:35:40Z
2022-11-11T03:36:45Z,42.805,6.029,13.3014,4.60054,2470.661,2022-11-11T05:38:43Z
2022-11-11T03:39:48Z,42.805,6.029,13.3011,4.60055,2470.684,2022-11-11T05:41:46Z
2022-11-11T03:42:52Z,42.805,6.029,13.3008,4.60054,2470.67,2022-11-11T05:44:49Z
2022-11-11T03:45:55Z,42.805,6.029,13.3009,4.60054,2470.646,2022-11-11T05:47:52Z
2022-11-11T03:48:58Z,42.805,6.029,13.3009,4.60054,2470.684,2022-11-11T05:50:56Z
2022-11-11T03:52:01Z,42.805,6.029,13.3009,4.60055,2470.646,2022-11-11T05:53:59Z
2022-11-11T03:55:04Z,42.805,6.029,13.3010,4.60056,2470.693,2022-11-11T05:57:02Z
2022-11-11T03:58:07Z,42.805,6.029,13.3009,4.60055,2470.684,2022-11-11T06:00:05Z
2022-11-11T04:01:10Z,42.805,6.029,13.3013,4.60055,2470.661,2022-11-11T06:03:08Z
2022-11-11T04:04:13Z,42.805,6.029,13.3010,4.60054,2470.707,2022-11-11T06:06:11Z
2022-11-11T04:07:16Z,42.805,6.029,13.3013,4.60054,2470.693,2022-11-11T06:09:14Z
2022-11-11T04:10:19Z,42.805,6.029,13.3012,4.60054,2470.684,2022-11-11T06:12:17Z
2022-11-11T04:13:22Z,42.805,6.029,13.3012,4.60053,2470.67,2022-11-11T06:15:20Z
2022-11-11T04:16:25Z,42.805,6.029,13.3012,4.60055,2470.646,2022-11-11T06:18:23Z
2022-11-11T04:19:28Z,42.805,6.029,13.3014,4.60054,2470.624,2022-11-11T06:21:26Z
2022-11-11T04:22:32Z,42.805,6.029,13.3016,4.60054,2470.684,2022-11-11T06:24:29Z
2022-11-11T04:25:35Z,42.805,6.029,13.3008,4.60054,2470.73,2022-11-11T06:27:32Z
2022-11-11T04:28:38Z,42.805,6.029,13.3011,4.60054,2470.693,2022-11-11T06:30:35Z
2022-11-11T04:31:41Z,42.805,6.029,13.3008,4.60054,2470.684,2022-11-11T06:33:39Z
2022-11-11T04:34:44Z,42.805,6.029,13.3011,4.60055,2470.67,2022-11-11T06:36:42Z
2022-11-11T04:37:47Z,42.805,6.029,13.3009,4.60054,2470.684,2022-11-11T06:39:45Z
2022-11-11T04:40:50Z,42.805,6.029,13.3011,4.60055,2470.707,2022-11-11T06:42:48Z
2022-11-11T04:43:53Z,42.805,6.029,13.3014,4.60054,2470.67,2022-11-11T06:45:51Z
2022-11-11T04:46:56Z,42.805,6.029,13.3015,4.60054,2470.67,2022-11-11T06:48:54Z
2022-11-11T04:49:59Z,42.805,6.029,13.3010,4.60055,2470.693,2022-11-11T06:51:57Z
2022-11-11T04:53:02Z,42.805,6.029,13.3011,4.60056,2470.693,2022-11-11T06:55:00Z
2022-11-11T04:56:05Z,42.805,6.029,13.3011,4.60055,2470.73,2022-11-11T06:58:03Z
2022-11-11T04:59:08Z,42.805,6.029,13.3010,4.60055,2470.67,2022-11-11T07:01:06Z
2022-11-11T05:02:12Z,42.805,6.029,13.3014,4.60056,2470.73,2022-11-11T07:04:09Z
2022-11-11T05:05:15Z,42.805,6.029,13.3012,4.60057,2470.693,2022-11-11T07:07:12Z
2022-11-11T05:08:18Z,42.805,6.029,13.3014,4.60058,2470.693,2022-11-11T07:10:16Z
2022-11-11T05:11:21Z,42.805,6.029,13.3014,4.60056,2470.693,2022-11-11T07:13:19Z
2022-11-11T05:14:24Z,42.805,6.029,13.3009,4.60056,2470.717,2022-11-11T07:16:22Z
2022-11-11T05:17:27Z,42.805,6.029,13.3014,4.60055,2470.707,2022-11-11T07:19:25Z
2022-11-11T05:20:30Z,42.805,6.029,13.3009,4.60056,2470.74,2022-11-11T07:22:28Z
2022-11-11T05:23:33Z,42.805,6.029,13.3013,4.60056,2470.73,2022-11-11T07:25:31Z
2022-11-11T05:26:36Z,42.805,6.029,13.3011,4.60056,2470.74,2022-11-11T07:28:34Z
2022-11-11T05:29:39Z,42.805,6.029,13.3014,4.60056,2470.73,2022-11-11T07:31:37Z
2022-11-11T05:32:42Z,42.805,6.029,13.3011,4.60059,2470.717,2022-11-11T07:34:40Z
2022-11-11T05:35:45Z,42.805,6.029,13.3014,4.60056,2470.74,2022-11-11T07:37:43Z
2022-11-11T05:38:48Z,42.805,6.029,13.3014,4.60057,2470.684,2022-11-11T07:40:46Z
2022-11-11T05:41:52Z,42.805,6.029,13.3015,4.60057,2470.707,2022-11-11T07:43:49Z
2022-11-11T05:44:55Z,42.805,6.029,13.3014,4.60057,2470.693,2022-11-11T07:46:52Z
2022-11-11T05:47:58Z,42.805,6.029,13.3015,4.60057,2470.74,2022-11-11T07:49:56Z
2022-11-11T05:51:01Z,42.805,6.029,13.3013,4.60056,2470.777,2022-11-11T07:52:59Z
2022-11-11T05:54:04Z,42.805,6.029,13.3011,4.60057,2470.763,2022-11-11T07:56:02Z
2022-11-11T05:57:07Z,42.805,6.029,13.3013,4.60057,2470.754,2022-11-11T07:59:05Z
2022-11-11T06:00:10Z,42.805,6.029,13.3015,4.60057,2470.754,2022-11-11T08:02:08Z
2022-11-11T06:03:13Z,42.805,6.029,13.3015,4.60057,2470.74,2022-11-11T08:05:11Z
2022-11-11T06:06:16Z,42.805,6.029,13.3013,4.60056,2470.74,2022-11-11T08:08:14Z
2022-11-11T06:09:19Z,42.805,6.029,13.3012,4.60062,2470.777,2022-11-11T08:11:17Z
2022-11-11T06:12:22Z,42.805,6.029,13.3014,4.60057,2470.74,2022-11-11T08:14:20Z
2022-11-11T06:15:25Z,42.805,6.029,13.3010,4.60057,2470.777,2022-11-11T08:17:23Z
2022-11-11T06:18:29Z,42.805,6.029,13.3014,4.60057,2470.74,2022-11-11T08:20:26Z
2022-11-11T06:21:32Z,42.805,6.029,13.3015,4.60057,2470.777,2022-11-11T08:23:29Z
2022-11-11T06:24:35Z,42.805,6.029,13.3014,4.60058,2470.763,2022-11-11T08:26:32Z
2022-11-11T06:27:38Z,42.805,6.029,13.3011,4.60057,2470.8,2022-11-11T08:29:36Z
2022-11-11T06:30:41Z,42.805,6.029,13.3011,4.60057,2470.763,2022-11-11T08:32:39Z
2022-11-11T06:33:44Z,42.805,6.029,13.3009,4.60057,2470.787,2022-11-11T08:35:42Z
2022-11-11T06:36:47Z,42.805,6.029,13.3015,4.60058,2470.8,2022-11-11T08:38:45Z
2022-11-11T06:39:50Z,42.805,6.029,13.3011,4.60057,2470.763,2022-11-11T08:41:48Z
2022-11-11T06:42:53Z,42.805,6.029,13.3012,4.60057,2470.787,2022-11-11T08:44:51Z
2022-11-11T06:45:56Z,42.805,6.029,13.3013,4.60057,2470.787,2022-11-11T08:47:54Z
2022-11-11T06:48:59Z,42.805,6.029,13.3013,4.60057,2470.763,2022-11-11T08:50:57Z
2022-11-11T06:52:02Z,42.805,6.029,13.3012,4.60057,2470.8,2022-11-11T08:54:00Z
2022-11-11T06:55:05Z,42.805,6.029,13.3010,4.60057,2470.81,2022-11-11T08:57:03Z
2022-11-11T06:58:09Z,42.805,6.029,13.3016,4.60057,2470.787,2022-11-11T09:00:06Z
2022-11-11T07:01:12Z,42.805,6.029,13.3015,4.60057,2470.8,2022-11-11T09:03:09Z
2022-11-11T07:04:15Z,42.805,6.029,13.3013,4.60057,2470.81,2022-11-11T09:06:13Z
2022-11-11T07:07:18Z,42.805,6.029,13.3014,4.60057,2470.787,2022-11-11T09:09:16Z
2022-11-11T07:10:21Z,42.805,6.029,13.3015,4.60057,2470.787,2022-11-11T09:12:19Z
2022-11-11T07:13:24Z,42.805,6.029,13.3012,4.60058,2470.81,2022-11-11T09:15:22Z
2022-11-11T07:16:27Z,42.805,6.029,13.3013,4.60057,2470.787,2022-11-11T09:18:25Z
2022-11-11T07:19:30Z,42.805,6.029,13.3014,4.60057,2470.847,2022-11-11T09:21:28Z
2022-11-11T07:22:33Z,42.805,6.029,13.3016,4.60062,2470.824,2022-11-11T09:24:31Z
2022-11-11T07:25:36Z,42.805,6.029,13.3014,4.60057,2470.787,2022-11-11T09:27:34Z
2022-11-11T07:28:39Z,42.805,6.029,13.3012,4.60057,2470.824,2022-11-11T09:30:37Z
2022-11-11T07:31:42Z,42.805,6.029,13.3013,4.60057,2470.833,2022-11-11T09:33:40Z
2022-11-11T07:34:46Z,42.805,6.029,13.3014,4.60057,2470.81,2022-11-11T09:36:43Z
2022-11-11T07:37:49Z,42.805,6.029,13.3015,4.60059,2470.857,2022-11-11T09:39:46Z
2022-11-11T07:40:52Z,42.805,6.029,13.3017,4.60057,2470.847,2022-11-11T09:42:49Z
2022-11-11T07:43:55Z,42.805,6.029,13.3011,4.60057,2470.857,2022-11-11T09:45:53Z
2022-11-11T07:46:58Z,42.805,6.029,13.3011,4.60057,2470.81,2022-11-11T09:48:56Z
2022-11-11T07:50:01Z,42.805,6.029,13.3014,4.60057,2470.82,2022-11-11T09:51:59Z
2022-11-11T07:53:04Z,42.805,6.029,13.3015,4.60062,2470.833,2022-11-11T09:55:02Z
2022-11-11T07:56:07Z,42.805,6.029,13.3014,4.60058,2470.81,2022-11-11T09:58:05Z
2022-11-11T07:59:10Z,42.805,6.029,13.3014,4.60063,2470.833,2022-11-11T10:01:08Z
2022-11-11T08:02:13Z,42.805,6.029,13.3009,4.60057,2470.833,2022-11-11T10:04:11Z
2022-11-11T08:05:16Z,42.805,6.029,13.3008,4.60057,2470.833,2022-11-11T10:07:14Z
2022-11-11T08:08:19Z,42.805,6.029,13.3014,4.60056,2470.833,2022-11-11T10:10:17Z
2022-11-11T08:11:22Z,42.805,6.029,13.3012,4.60057,2470.871,2022-11-11T10:13:20Z
2022-11-11T08:14:26Z,42.805,6.029,13.3013,4.60059,2470.871,2022-11-11T10:16:23Z
2022-11-11T08:17:29Z,42.805,6.029,13.3010,4.60056,2470.833,2022-11-11T10:19:26Z
2022-11-11T08:20:32Z,42.805,6.029,13.3009,4.60059,2470.857,2022-11-11T10:22:30Z
2022-11-11T08:23:35Z,42.805,6.029,13.3012,4.60057,2470.857,2022-11-11T10:25:33Z
2022-11-11T08:26:38Z,42.805,6.029,13.3014,4.60057,2470.847,2022-11-11T10:28:36Z
2022-11-11T08:29:41Z,42.805,6.029,13.3014,4.60059,2470.857,2022-11-11T10:31:39Z
2022-11-11T08:32:44Z,42.805,6.029,13.3008,4.60056,2470.847,2022-11-11T10:34:42Z
2022-11-11T08:35:47Z,42.805,6.029,13.3013,4.60057,2470.88,2022-11-11T10:37:45Z
2022-11-11T08:38:50Z,42.805,6.029,13.3013,4.60056,2470.833,2022-11-11T10:40:48Z
2022-11-11T08:41:53Z,42.805,6.029,13.3011,4.60057,2470.871,2022-11-11T10:43:51Z
2022-11-11T08:44:56Z,42.805,6.029,13.3015,4.60057,2470.833,2022-11-11T10:46:54Z
2022-11-11T08:47:59Z,42.805,6.029,13.3013,4.60056,2470.847,2022-11-11T10:49:57Z
2022-11-11T08:51:03Z,42.805,6.029,13.3013,4.60057,2470.81,2022-11-11T10:53:00Z
2022-11-11T08:54:06Z,42.805,6.029,13.3009,4.60057,2470.857,2022-11-11T10:56:03Z
2022-11-11T08:57:09Z,42.805,6.029,13.3014,4.60057,2470.857,2022-11-11T10:59:06Z
2022-11-11T09:00:12Z,42.805,6.029,13.3013,4.60056,2470.857,2022-11-11T11:02:10Z
2022-11-11T09:03:15Z,42.805,6.029,13.3014,4.60057,2470.871,2022-11-11T11:05:13Z
2022-11-11T09:06:18Z,42.805,6.029,13.3010,4.60058,2470.871,2022-11-11T11:08:16Z
2022-11-11T09:09:21Z,42.805,6.029,13.3012,4.60057,2470.833,2022-11-11T11:11:19Z
2022-11-11T09:12:24Z,42.805,6.029,13.3014,4.60057,2470.81,2022-11-11T11:14:22Z
2022-11-11T09:15:27Z,42.805,6.029,13.3014,4.60062,2470.847,2022-11-11T11:17:25Z
2022-11-11T09:18:30Z,42.805,6.029,13.3011,4.60057,2470.787,2022-11-11T11:20:28Z
2022-11-11T09:21:33Z,42.805,6.029,13.3014,4.60057,2470.824,2022-11-11T11:23:31Z
2022-11-11T09:24:36Z,42.805,6.029,13.3012,4.60057,2470.857,2022-11-11T11:26:34Z
2022-11-11T09:27:40Z,42.805,6.029,13.3015,4.60057,2470.857,2022-11-11T11:29:37Z
2022-11-11T09:30:43Z,42.805,6.029,13.3009,4.60058,2470.833,2022-11-11T11:32:40Z
2022-11-11T09:33:46Z,42.805,6.029,13.3011,4.60056,2470.847,2022-11-11T11:35:44Z
2022-11-11T09:36:49Z,42.805,6.029,13.3009,4.60061,2470.871,2022-11-11T11:38:47Z
2022-11-11T09:39:52Z,42.805,6.029,13.3011,4.60057,2470.833,2022-11-11T11:41:50Z
2022-11-11T09:42:55Z,42.805,6.029,13.3014,4.60060,2470.857,2022-11-11T11:44:53Z
2022-11-11T09:45:58Z,42.805,6.029,13.3014,4.60057,2470.833,2022-11-11T11:47:56Z
2022-11-11T09:49:01Z,42.805,6.029,13.3011,4.60056,2470.871,2022-11-11T11:50:59Z
2022-11-11T09:52:04Z,42.805,6.029,13.3011,4.60057,2470.833,2022-11-11T11:54:02Z
2022-11-11T09:55:07Z,42.805,6.029,13.3009,4.60057,2470.824,2022-11-11T11:57:05Z
2022-11-11T09:58:10Z,42.805,6.029,13.3009,4.60057,2470.857,2022-11-11T12:00:08Z
2022-11-11T10:01:13Z,42.805,6.029,13.3011,4.60057,2470.833,2022-11-11T12:03:11Z
2022-11-11T10:04:17Z,42.805,6.029,13.3011,4.60059,2470.824,2022-11-11T12:06:14Z
2022-11-11T10:07:20Z,42.805,6.029,13.3011,4.60057,2470.824,2022-11-11T12:09:17Z
2022-11-11T10:10:23Z,42.805,6.029,13.3015,4.60058,2470.871,2022-11-11T12:12:20Z
2022-11-11T10:13:26Z,42.805,6.029,13.3014,4.60057,2470.8,2022-11-11T12:15:24Z
2022-11-11T10:16:29Z,42.805,6.029,13.3012,4.60057,2470.847,2022-11-11T12:18:27Z
2022-11-11T10:19:32Z,42.805,6.029,13.3011,4.60057,2470.824,2022-11-11T12:21:30Z
2022-11-11T10:22:35Z,42.805,6.029,13.3011,4.60057,2470.81,2022-11-11T12:24:33Z
2022-11-11T10:25:38Z,42.805,6.029,13.3009,4.60057,2470.81,2022-11-11T12:27:36Z
2022-11-11T10:28:41Z,42.805,6.029,13.3012,4.60056,2470.81,2022-11-11T12:30:39Z
2022-11-11T10:31:44Z,42.805,6.029,13.3015,4.60061,2470.824,2022-11-11T12:33:42Z
2022-11-11T10:34:47Z,42.805,6.029,13.3009,4.60056,2470.824,2022-11-11T12:36:45Z
2022-11-11T10:37:50Z,42.805,6.029,13.3014,4.60057,2470.81,2022-11-11T12:39:48Z
2022-11-11T10:40:54Z,42.805,6.029,13.3010,4.60057,2470.81,2022-11-11T12:42:51Z
2022-11-11T10:43:57Z,42.805,6.029,13.3012,4.60057,2470.824,2022-11-11T12:45:54Z
2022-11-11T10:47:00Z,42.805,6.029,13.3009,4.60059,2470.81,2022-11-11T12:48:58Z
2022-11-11T10:50:03Z,42.805,6.029,13.3011,4.60057,2470.787,2022-11-11T12:52:01Z
2022-11-11T10:53:06Z,42.805,6.029,13.3015,4.60057,2470.787,2022-11-11T12:55:04Z
2022-11-11T10:56:09Z,42.805,6.029,13.3014,4.60058,2470.81,2022-11-11T12:58:07Z
2022-11-11T10:59:12Z,42.805,6.029,13.3011,4.60057,2470.824,2022-11-11T13:01:10Z
2022-11-11T11:02:15Z,42.805,6.029,13.3009,4.60057,2470.787,2022-11-11T13:04:13Z
2022-11-11T11:05:18Z,42.805,6.029,13.3014,4.60056,2470.787,2022-11-11T13:07:16Z
2022-11-11T11:08:21Z,42.805,6.029,13.3011,4.60057,2470.8,2022-11-11T13:10:19Z
2022-11-11T11:11:24Z,42.805,6.029,13.3014,4.60057,2470.787,2022-11-11T13:13:22Z
2022-11-11T11:14:27Z,42.805,6.029,13.3014,4.60057,2470.787,2022-11-11T13:16:25Z
2022-11-11T11:17:31Z,42.805,6.029,13.3014,4.60057,2470.81,2022-11-11T13:19:28Z
2022-11-11T11:20:34Z,42.805,6.029,13.3011,4.60057,2470.8,2022-11-11T13:22:31Z
2022-11-11T11:23:37Z,42.805,6.029,13.3013,4.60057,2470.74,2022-11-11T13:25:34Z
2022-11-11T11:26:40Z,42.805,6.029,13.3012,4.60057,2470.777,2022-11-11T13:28:38Z
2022-11-11T11:29:43Z,42.805,6.029,13.3009,4.60057,2470.717,2022-11-11T13:31:41Z
2022-11-11T11:32:46Z,42.805,6.029,13.3016,4.60057,2470.787,2022-11-11T13:34:44Z
2022-11-11T11:35:49Z,42.805,6.029,13.3011,4.60057,2470.8,2022-11-11T13:37:47Z
2022-11-11T11:38:52Z,42.805,6.029,13.3012,4.60057,2470.777,2022-11-11T13:40:50Z
2022-11-11T11:41:55Z,42.805,6.029,13.3011,4.60056,2470.777,2022-11-11T13:43:53Z
2022-11-11T11:44:58Z,42.805,6.029,13.3011,4.60061,2470.763,2022-11-11T13:46:56Z
2022-11-11T11:48:01Z,42.805,6.029,13.3010,4.60057,2470.74,2022-11-11T13:49:59Z
2022-11-11T11:51:04Z,42.805,6.029,13.3012,4.60056,2470.763,2022-11-11T13:53:02Z
2022-11-11T11:54:08Z,42.805,6.029,13.3014,4.60059,2470.763,2022-11-11T13:56:05Z
2022-11-11T11:57:11Z,42.805,6.029,13.3012,4.60057,2470.74,2022-11-11T13:59:08Z
2022-11-11T12:00:14Z,42.805,6.029,13.3014,4.60057,2470.763,2022-11-11T14:02:12Z
2022-11-11T12:03:17Z,42.805,6.029,13.3014,4.60057,2470.717,2022-11-11T14:05:15Z
2022-11-11T12:06:20Z,42.805,6.029,13.3018,4.60057,2470.763,2022-11-11T14:08:18Z
2022-11-11T12:09:23Z,42.805,6.029,13.3013,4.60057,2470.763,2022-11-11T14:11:21Z
2022-11-11T12:12:26Z,42.805,6.029,13.3012,4.60057,2470.754,2022-11-11T14:14:24Z
2022-11-11T12:15:29Z,42.805,6.029,13.3011,4.60060,2470.763,2022-11-11T14:17:27Z
2022-11-11T12:18:32Z,42.805,6.029,13.3015,4.60058,2470.74,2022-11-11T14:20:30Z
2022-11-11T12:21:35Z,42.805,6.029,13.3011,4.60057,2470.717,2022-11-11T14:23:33Z
2022-11-11T12:24:38Z,42.805,6.029,13.3015,4.60061,2470.754,2022-11-11T14:26:36Z
2022-11-11T12:27:41Z,42.805,6.029,13.3012,4.60056,2470.74,2022-11-11T14:29:39Z
2022-11-11T12:30:45Z,42.805,6.029,13.3016,4.60057,2470.754,2022-11-11T14:32:42Z
2022-11-11T12:33:48Z,42.805,6.029,13.3008,4.60057,2470.717,2022-11-11T14:35:45Z
2022-11-11T12:36:51Z,42.805,6.029,13.3014,4.60057,2470.763,2022-11-11T14:38:49Z
2022-11-11T12:39:54Z,42.805,6.029,13.3015,4.60057,2470.73,2022-11-11T14:41:52Z
2022-11-11T12:42:57Z,42.805,6.029,13.3013,4.60057,2470.73,2022-11-11T14:44:55Z
2022-11-11T12:46:00Z,42.805,6.029,13.3012,4.60059,2470.73,2022-11-11T14:47:58Z
2022-11-11T12:49:03Z,42.805,6.029,13.3016,4.60057,2470.74,2022-11-11T14:51:01Z
2022-11-11T12:52:06Z,42.805,6.029,13.3015,4.60058,2470.693,2022-11-11T14:54:04Z
2022-11-11T12:55:09Z,42.805,6.029,13.3012,4.60056,2470.73,2022-11-11T14:57:07Z
2022-11-11T12:58:12Z,42.805,6.029,13.3015,4.60057,2470.693,2022-11-11T15:00:10Z
2022-11-11T13:01:15Z,42.805,6.029,13.3014,4.60057,2470.73,2022-11-11T15:03:13Z
2022-11-11T13:04:18Z,42.805,6.029,13.3015,4.60060,2470.754,2022-11-11T15:06:16Z
2022-11-11T13:07:22Z,42.805,6.029,13.3016,4.60057,2470.684,2022-11-11T15:09:19Z
2022-11-11T13:10:25Z,42.805,6.029,13.3012,4.60057,2470.717,2022-11-11T15:12:22Z
2022-11-11T13:13:28Z,42.805,6.029,13.3014,4.60057,2470.707,2022-11-11T15:15:26Z
2022-11-11T13:16:31Z,42.805,6.029,13.3014,4.60059,2470.693,2022-11-11T15:18:29Z
2022-11-11T13:19:34Z,42.805,6.029,13.3011,4.60060,2470.707,2022-11-11T15:21:32Z
2022-11-11T13:22:37Z,42.805,6.029,13.3014,4.60059,2470.67,2022-11-11T15:24:35Z
2022-11-11T13:25:40Z,42.805,6.029,13.3012,4.60058,2470.67,2022-11-11T15:27:38Z
2022-11-11T13:28:43Z,42.805,6.029,13.3014,4.60057,2470.67,2022-11-11T15:30:41Z
2022-11-11T13:31:46Z,42.805,6.029,13.3014,4.60060,2470.707,2022-11-11T15:33:44Z
2022-11-11T13:34:49Z,42.805,6.029,13.3015,4.60058,2470.693,2022-11-11T15:36:47Z
2022-11-11T13:37:52Z,42.805,6.029,13.3009,4.60057,2470.67,2022-11-11T15:39:50Z
2022-11-11T13:40:55Z,42.805,6.029,13.3015,4.60057,2470.693,2022-11-11T15:42:53Z
2022-11-11T13:43:59Z,42.805,6.029,13.3013,4.60058,2470.646,2022-11-11T15:45:56Z
2022-11-11T13:47:02Z,42.805,6.029,13.3016,4.60057,2470.717,2022-11-11T15:48:59Z
2022-11-11T13:50:05Z,42.805,6.029,13.3014,4.60057,2470.693,2022-11-11T15:52:03Z
2022-11-11T13:53:08Z,42.805,6.029,13.3010,4.60057,2470.684,2022-11-11T15:55:06Z
2022-11-11T13:56:11Z,42.805,6.029,13.3015,4.60058,2470.684,2022-11-11T15:58:09Z
2022-11-11T13:59:14Z,42.805,6.029,13.3012,4.60058,2470.717,2022-11-11T16:01:12Z
2022-11-11T14:02:17Z,42.805,6.029,13.3018,4.60057,2470.646,2022-11-11T16:04:15Z
2022-11-11T14:05:20Z,42.805,6.029,13.3014,4.60059,2470.67,2022-11-11T16:07:18Z
2022-11-11T14:08:23Z,42.805,6.029,13.3009,4.60057,2470.67,2022-11-11T16:10:21Z
2022-11-11T14:11:26Z,42.805,6.029,13.3014,4.60058,2470.684,2022-11-11T16:13:24Z
2022-11-11T14:14:29Z,42.805,6.029,13.3015,4.60057,2470.646,2022-11-11T16:16:27Z
2022-11-11T14:17:32Z,42.805,6.029,13.3014,4.60057,2470.684,2022-11-11T16:19:30Z
2022-11-11T14:20:36Z,42.805,6.029,13.3014,4.60057,2470.693,2022-11-11T16:22:33Z
2022-11-11T14:23:39Z,42.805,6.029,13.3017,4.60058,2470.67,2022-11-11T16:25:36Z
2022-11-11T14:26:42Z,42.805,6.029,13.3013,4.60060,2470.646,2022-11-11T16:28:40Z
2022-11-11T14:29:45Z,42.805,6.029,13.3014,4.60058,2470.67,2022-11-11T16:31:43Z
2022-11-11T14:32:48Z,42.805,6.029,13.3015,4.60057,2470.661,2022-11-11T16:34:46Z
2022-11-11T14:35:51Z,42.805,6.029,13.3015,4.60057,2470.67,2022-11-11T16:37:49Z
2022-11-11T14:38:54Z,42.805,6.029,13.3015,4.60058,2470.693,2022-11-11T16:40:52Z
2022-11-11T14:41:57Z,42.805,6.029,13.3014,4.60061,2470.693,2022-11-11T16:43:55Z
2022-11-11T14:45:00Z,42.805,6.029,13.3012,4.60058,2470.684,2022-11-11T16:46:58Z
2022-11-11T14:48:03Z,42.805,6.029,13.3015,4.60057,2470.646,2022-11-11T16:50:01Z
2022-11-11T14:51:06Z,42.805,6.029,13.3012,4.60058,2470.661,2022-11-11T16:53:04Z
2022-11-11T14:54:09Z,42.805,6.029,13.3019,4.60058,2470.67,2022-11-11T16:56:07Z
2022-11-11T14:57:13Z,42.805,6.029,13.3011,4.60059,2470.646,2022-11-11T16:59:10Z
2022-11-11T15:00:16Z,42.805,6.029,13.3017,4.60059,2470.67,2022-11-11T17:02:13Z